Location: Helsinki
(60.1699°N, 24.9384°E)
Time: 20:00:30
(UTC+03:00)

A-11 Canister half - Visible Passes

Search period start: 21 October 2020 00:00
Search period end: 30 October 2020 23:00
Orbit: 1515 x 1685 km, 47.2° (Epoch: 20 October)

Date Brightness Start Highest point End Pass type
(mag) Time Alt. Az. Time Alt. Az. Time Alt. Az.
21 Oct 10.3 03:00:51 22° SE 03:00:51 22° SE 03:04:09 10° ESE visible
21 Oct 9.8 04:59:04 28° SSW 04:59:04 28° SSW 05:06:13 10° SSE visible
21 Oct 10.5 06:57:49 10° WSW 07:00:47 12° SW 07:03:45 10° SSW visible
22 Oct 10.6 02:39:35 16° SE 02:39:35 16° SE 02:41:21 10° ESE visible
22 Oct 9.9 04:37:49 27° S 04:37:49 27° S 04:43:31 10° SSE visible
22 Oct 10.4 06:36:04 12° WSW 06:38:03 13° SW 06:41:38 10° SSW visible
23 Oct 10.9 02:18:24 10° ESE 02:18:24 10° ESE 02:18:32 10° ESE visible
23 Oct 10.1 04:16:38 23° S 04:16:38 23° S 04:20:49 10° SSE visible
23 Oct 10.4 06:14:52 14° SW 06:15:19 14° SW 06:19:25 10° SSW visible
24 Oct 10.4 03:55:32 19° SSE 03:55:32 19° SSE 03:58:07 10° SSE visible
24 Oct 10.4 05:53:47 14° SW 05:53:47 14° SW 05:57:06 10° SSW visible
25 Oct 10.7 03:34:29 13° SSE 03:34:29 13° SSE 03:35:24 10° SE visible
25 Oct 10.5 04:32:44 13° SSW 04:32:44 13° SSW 04:34:45 10° SSW visible
26 Oct 10.7 04:11:45 11° SSW 04:11:45 11° SSW 04:12:20 10° S visible
26 Oct 10.9 21:27:27 10° SSW 21:27:37 10° SSW 21:27:37 10° SSW visible
27 Oct 10.7 19:07:20 10° SSE 19:08:14 11° SE 19:08:14 11° SE visible
27 Oct 10.7 21:04:43 10° SSW 21:06:28 15° SSW 21:06:28 15° SSW visible
28 Oct 10.6 18:45:20 10° SE 18:47:01 11° SE 18:47:01 11° SE visible
28 Oct 10.4 20:41:59 10° SSW 20:45:16 19° S 20:45:16 19° S visible
29 Oct 10.6 18:23:52 10° SE 18:25:01 10° SE 18:25:44 10° ESE visible
29 Oct 10.2 20:19:16 10° SSW 20:23:58 23° S 20:23:58 23° S visible
29 Oct 10.9 22:21:09 10° SW 22:22:11 13° SW 22:22:11 13° SW visible
30 Oct 10.1 19:56:33 10° SSW 20:02:36 24° SSE 20:02:36 24° SSE visible
30 Oct 10.6 21:58:18 10° SW 22:00:49 19° SW 22:00:49 19° SW visible
